Friday, October 31, 2014
04:07 UTC
  |  Log In   |  Register Free
Airport Search:

Heart Of Georgia Regional Airport
(KEZM)

FAA data valid effective September 18, 2014 - November 13, 2014 (unless otherwise noted).

 
 
 
 
 
 
 
 
 
 
 
 
 
 

Current Aviation Weather for Heart Of Georgia Regional Airport (KEZM)

The most recent METAR observation for KEZM was updated at: 0309
METAR Summary (Translated METAR)
KEZM
310255Z AUTO 00000KT 10SM CLR 10/10 A2999 RMK AO2 T00980098
KDBN
310255Z AUTO 00000KT 10SM CLR 08/08 A2999 RMK AO2
(22.1 nm NE from KEZM)
KAZE
310255Z AUTO 35005KT 10SM SCT050 16/11 A2994 RMK AO2 T01570109
(31.6 nm SE from KEZM)
TAF
No TAF information found within 50 nm of KEZM
  Airport Weather Conditions for KEZM

 Current Weather at EZM
50° F
Fair
North winds at 0.0 mph
EZM NOAA Radar

Pressure: 29.99 in
Humidity: 100%
Wind: Calm
Dew Point: 49.6°F
Visibility: 10.00 mi


Airport Weather Forecast for KEZM

Translated METAR and TAF for KEZM
Translated METAR for KEZM (0402 UTC 31 October 2014)
found at http://aviationweather.gov/adds/metars/
 
METAR text: KEZM 310355Z AUTO 00000KT 10SM CLR 09/09 A2999 RMK AO2 T00930093
Conditions at: KEZM (EASTMAN , GA, US) observed 0355 UTC 31 October 2014
Temperature: 9.3°C (49°F)
Dewpoint: 9.3°C (49°F) [RH = 100%]
Pressure (altimeter): 29.99 inches Hg (1015.7 mb)
Winds: calm
Visibility: 10 or more miles (16+ km)
Ceiling: at least 12,000 feet AGL
Clouds: sky clear below 12,000 feet AGL
Weather: automated observation with no human augmentation;
there may or may not be significant weather present at this time
Translated TAF for KEZM

There is no translated TAF available for this airport

Find All Airport Services Find A Hotel Find A Rental Car Find A Golf Course Find A Restaurant $100 Hamburger



FBO's on the Field
FBO Company Facility Photos Services Transportation Aviation Fuel Prices: Prices include tax
Catering Weather Repair Courtesy Rental Type 100LL JetA JetA+ MOGAS 8087
 
Heart of Georgia Regional Airport

This FBO has not yet been rated
FS:Phillips 66
Last Updated: Oct-08
Login to update fuel prices
SS:
Contact Heart of Georgia Regional AirportMore FBO Information
 
Add another FBO Facility Photos Catering Weather Repair Courtesy Rental Type 100LL JetA JetA+ MOGAS 8087
Services Transportation Aviation Fuel Prices: Prices include tax


model-print
model-print
model-print
model-print